Year,Month,Day,Hour,Minute,Value (Times are PST for temperature in C)
2014,08,27,00,00,20.80
2014,08,27,00,01,20.70
2014,08,27,00,02,20.70
2014,08,27,00,03,20.70
2014,08,27,00,04,20.70
2014,08,27,00,05,20.70
2014,08,27,00,06,20.70
2014,08,27,00,07,20.70
2014,08,27,00,08,20.70
2014,08,27,00,09,20.80
2014,08,27,00,10,20.80
2014,08,27,00,11,20.80
2014,08,27,00,12,20.80
2014,08,27,00,13,20.80
2014,08,27,00,14,20.80
2014,08,27,00,15,20.80
2014,08,27,00,16,20.80
2014,08,27,00,17,20.80
2014,08,27,00,18,20.70
2014,08,27,00,19,20.70
2014,08,27,00,20,20.70
2014,08,27,00,21,20.70
2014,08,27,00,22,20.70
2014,08,27,00,23,20.70
2014,08,27,00,24,20.70
2014,08,27,00,25,20.80
2014,08,27,00,26,20.80
2014,08,27,00,27,20.80
2014,08,27,00,28,20.80
2014,08,27,00,29,20.90
2014,08,27,00,30,20.90
2014,08,27,00,31,21.00
2014,08,27,00,32,21.10
2014,08,27,00,33,21.10
2014,08,27,00,34,21.10
2014,08,27,00,35,21.10
2014,08,27,00,36,21.10
2014,08,27,00,37,21.10
2014,08,27,00,38,21.10
2014,08,27,00,39,21.10
2014,08,27,00,40,21.10
2014,08,27,00,41,21.10
2014,08,27,00,42,21.00
2014,08,27,00,43,21.00
2014,08,27,00,44,20.90
2014,08,27,00,45,20.90
2014,08,27,00,46,20.90
2014,08,27,00,47,20.90
2014,08,27,00,48,20.90
2014,08,27,00,49,20.80
2014,08,27,00,50,20.80
2014,08,27,00,51,20.80
2014,08,27,00,52,20.80
2014,08,27,00,53,20.80
2014,08,27,00,54,20.80
2014,08,27,00,55,20.80
2014,08,27,00,56,20.80
2014,08,27,00,57,20.80
2014,08,27,00,58,20.80
2014,08,27,00,59,20.80
2014,08,27,01,00,20.80
2014,08,27,01,01,20.80
2014,08,27,01,02,20.80
2014,08,27,01,03,20.80
2014,08,27,01,04,20.80
2014,08,27,01,05,20.80
2014,08,27,01,06,20.80
2014,08,27,01,07,20.80
2014,08,27,01,08,20.80
2014,08,27,01,09,20.80
2014,08,27,01,10,20.80
2014,08,27,01,11,20.90
2014,08,27,01,12,20.90
2014,08,27,01,13,20.90
2014,08,27,01,14,20.90
2014,08,27,01,15,20.90
2014,08,27,01,16,20.90
2014,08,27,01,17,21.00
2014,08,27,01,18,21.00
2014,08,27,01,19,21.00
2014,08,27,01,20,21.00
2014,08,27,01,21,21.00
2014,08,27,01,22,20.90
2014,08,27,01,23,20.90
2014,08,27,01,24,20.90
2014,08,27,01,25,20.90
2014,08,27,01,26,21.00
2014,08,27,01,27,21.00
2014,08,27,01,28,21.00
2014,08,27,01,29,21.00
2014,08,27,01,30,21.00
2014,08,27,01,31,20.90
2014,08,27,01,32,20.90
2014,08,27,01,33,20.80
2014,08,27,01,34,20.80
2014,08,27,01,35,20.80
2014,08,27,01,36,20.70
2014,08,27,01,37,20.70
2014,08,27,01,38,20.60
2014,08,27,01,39,20.50
2014,08,27,01,40,20.30
2014,08,27,01,41,20.20
2014,08,27,01,42,20.00
2014,08,27,01,43,19.90
2014,08,27,01,44,19.80
2014,08,27,01,45,19.70
2014,08,27,01,46,19.60
2014,08,27,01,47,19.60
2014,08,27,01,48,19.50
2014,08,27,01,49,19.40
2014,08,27,01,50,19.30
2014,08,27,01,51,19.20
2014,08,27,01,52,19.10
2014,08,27,01,53,19.10
2014,08,27,01,54,19.00
2014,08,27,01,55,19.00
2014,08,27,01,56,18.90
2014,08,27,01,57,18.90
2014,08,27,01,58,18.80
2014,08,27,01,59,18.80
2014,08,27,02,00,18.70
2014,08,27,02,01,18.70
2014,08,27,02,02,18.70
2014,08,27,02,03,18.70
2014,08,27,02,04,18.60
2014,08,27,02,05,18.60
2014,08,27,02,06,18.60
2014,08,27,02,07,18.50
2014,08,27,02,08,18.50
2014,08,27,02,09,18.40
2014,08,27,02,10,18.40
2014,08,27,02,11,18.40
2014,08,27,02,12,18.30
2014,08,27,02,13,18.30
2014,08,27,02,14,18.30
2014,08,27,02,15,18.20
2014,08,27,02,16,18.20
2014,08,27,02,17,18.20
2014,08,27,02,18,18.20
2014,08,27,02,19,18.10
2014,08,27,02,20,18.10
2014,08,27,02,21,18.10
2014,08,27,02,22,18.00
2014,08,27,02,23,18.00
2014,08,27,02,24,18.00
2014,08,27,02,25,17.90
2014,08,27,02,26,17.90
2014,08,27,02,27,17.90
2014,08,27,02,28,17.90
2014,08,27,02,29,17.90
2014,08,27,02,30,17.90
2014,08,27,02,31,17.90
2014,08,27,02,32,17.80
2014,08,27,02,33,17.80
2014,08,27,02,34,17.80
2014,08,27,02,35,17.80
2014,08,27,02,36,17.80
2014,08,27,02,37,17.80
2014,08,27,02,38,17.80
2014,08,27,02,39,17.80
2014,08,27,02,40,17.80
2014,08,27,02,41,17.80
2014,08,27,02,42,17.80
2014,08,27,02,43,17.80
2014,08,27,02,44,17.80
2014,08,27,02,45,17.70
2014,08,27,02,46,17.70
2014,08,27,02,47,17.70
2014,08,27,02,48,17.70
2014,08,27,02,49,17.70
2014,08,27,02,50,17.70
2014,08,27,02,51,17.70
2014,08,27,02,52,17.60
2014,08,27,02,53,17.60
2014,08,27,02,54,17.60
2014,08,27,02,55,17.60
2014,08,27,02,56,17.60
2014,08,27,02,57,17.60
2014,08,27,02,58,17.60
2014,08,27,02,59,17.60
2014,08,27,03,00,17.60
2014,08,27,03,01,17.60
2014,08,27,03,02,17.60
2014,08,27,03,03,17.50
2014,08,27,03,04,17.50
2014,08,27,03,05,17.50
2014,08,27,03,06,17.50
2014,08,27,03,07,17.40
2014,08,27,03,08,17.40
2014,08,27,03,09,17.40
2014,08,27,03,10,17.40
2014,08,27,03,11,17.40
2014,08,27,03,12,17.40
2014,08,27,03,13,17.30
2014,08,27,03,14,17.30
2014,08,27,03,15,17.30
2014,08,27,03,16,17.30
2014,08,27,03,17,17.30
2014,08,27,03,18,17.30
2014,08,27,03,19,17.20
2014,08,27,03,20,17.20
2014,08,27,03,21,17.20
2014,08,27,03,22,17.20
2014,08,27,03,23,17.20
2014,08,27,03,24,17.10
2014,08,27,03,25,17.10
2014,08,27,03,26,17.10
2014,08,27,03,27,17.10
2014,08,27,03,28,17.10
2014,08,27,03,29,17.10
2014,08,27,03,30,17.10
2014,08,27,03,31,17.10
2014,08,27,03,32,17.10
2014,08,27,03,33,17.10
2014,08,27,03,34,17.00
2014,08,27,03,35,17.10
2014,08,27,03,36,17.00
2014,08,27,03,37,17.00
2014,08,27,03,38,17.00
2014,08,27,03,39,17.00
2014,08,27,03,40,17.00
2014,08,27,03,41,17.00
2014,08,27,03,42,17.00
2014,08,27,03,43,17.00
2014,08,27,03,44,17.00
2014,08,27,03,45,16.90
2014,08,27,03,46,16.90
2014,08,27,03,47,16.90
2014,08,27,03,48,16.90
2014,08,27,03,49,16.90
2014,08,27,03,50,16.90
2014,08,27,03,51,16.90
2014,08,27,03,52,16.90
2014,08,27,03,53,16.90
2014,08,27,03,54,16.90
2014,08,27,03,55,16.90
2014,08,27,03,56,16.90
2014,08,27,03,57,16.90
2014,08,27,03,58,16.90
2014,08,27,03,59,16.90
2014,08,27,04,00,16.90
2014,08,27,04,01,16.80
2014,08,27,04,02,16.80
2014,08,27,04,03,16.80
2014,08,27,04,04,16.80
2014,08,27,04,05,16.80
2014,08,27,04,06,16.70
2014,08,27,04,07,16.70
2014,08,27,04,08,16.70
2014,08,27,04,09,16.70
2014,08,27,04,10,16.70
2014,08,27,04,11,16.70
2014,08,27,04,12,16.60
2014,08,27,04,13,16.60
2014,08,27,04,14,16.60
2014,08,27,04,15,16.60
2014,08,27,04,16,16.50
2014,08,27,04,17,16.50
2014,08,27,04,18,16.50
2014,08,27,04,19,16.40
2014,08,27,04,20,16.40
2014,08,27,04,21,16.40
2014,08,27,04,22,16.40
2014,08,27,04,23,16.40
2014,08,27,04,24,16.40
2014,08,27,04,25,16.40
2014,08,27,04,26,16.40
2014,08,27,04,27,16.30
2014,08,27,04,28,16.30
2014,08,27,04,29,16.30
2014,08,27,04,30,16.30
2014,08,27,04,31,16.30
2014,08,27,04,32,16.30
2014,08,27,04,33,16.30
2014,08,27,04,34,16.20
2014,08,27,04,35,16.20
2014,08,27,04,36,16.20
2014,08,27,04,37,16.20
2014,08,27,04,38,16.10
2014,08,27,04,39,16.10
2014,08,27,04,40,16.10
2014,08,27,04,41,16.00
2014,08,27,04,42,15.90
2014,08,27,04,43,15.90
2014,08,27,04,44,15.80
2014,08,27,04,45,15.80
2014,08,27,04,46,15.70
2014,08,27,04,47,15.60
2014,08,27,04,48,15.60
2014,08,27,04,49,15.50
2014,08,27,04,50,15.40
2014,08,27,04,51,15.40
2014,08,27,04,52,15.30
2014,08,27,04,53,15.20
2014,08,27,04,54,15.20
2014,08,27,04,55,15.10
2014,08,27,04,56,15.10
2014,08,27,04,57,15.10
2014,08,27,04,58,15.00
2014,08,27,04,59,15.00
2014,08,27,05,00,15.00
2014,08,27,05,01,15.00
2014,08,27,05,02,15.00
2014,08,27,05,03,15.00
2014,08,27,05,04,15.00
2014,08,27,05,05,15.00
2014,08,27,05,06,15.00
2014,08,27,05,07,15.00
2014,08,27,05,08,15.00
2014,08,27,05,09,14.90
2014,08,27,05,10,14.90
2014,08,27,05,11,14.90
2014,08,27,05,12,14.90
2014,08,27,05,13,14.90
2014,08,27,05,14,14.90
2014,08,27,05,15,14.90
2014,08,27,05,16,15.00
2014,08,27,05,17,15.00
2014,08,27,05,18,15.00
2014,08,27,05,19,15.00
2014,08,27,05,20,15.00
2014,08,27,05,21,15.00
2014,08,27,05,22,15.00
2014,08,27,05,23,15.00
2014,08,27,05,24,15.00
2014,08,27,05,25,15.00
2014,08,27,05,26,15.00
2014,08,27,05,27,15.10
2014,08,27,05,28,15.10
2014,08,27,05,29,15.10
2014,08,27,05,30,15.10
2014,08,27,05,31,15.20
2014,08,27,05,32,15.20
2014,08,27,05,33,15.20
2014,08,27,05,34,15.20
2014,08,27,05,35,15.20
2014,08,27,05,36,15.20
2014,08,27,05,37,15.20
2014,08,27,05,38,15.20
2014,08,27,05,39,15.20
2014,08,27,05,40,15.20
2014,08,27,05,41,15.20
2014,08,27,05,42,15.20
2014,08,27,05,43,15.20
2014,08,27,05,44,15.20
2014,08,27,05,45,15.20
2014,08,27,05,46,15.20
2014,08,27,05,47,15.10
2014,08,27,05,48,15.10
2014,08,27,05,49,15.10
2014,08,27,05,50,15.00
2014,08,27,05,51,15.00
2014,08,27,05,52,15.00
2014,08,27,05,53,15.00
2014,08,27,05,54,15.00
2014,08,27,05,55,15.00
2014,08,27,05,56,15.00
2014,08,27,05,57,15.00
2014,08,27,05,58,15.00
2014,08,27,05,59,15.00
2014,08,27,06,00,15.00
2014,08,27,06,01,15.00
2014,08,27,06,02,15.00
2014,08,27,06,03,15.00
2014,08,27,06,04,15.00
2014,08,27,06,05,15.00
2014,08,27,06,06,15.00
2014,08,27,06,07,15.00
2014,08,27,06,08,14.90
2014,08,27,06,09,14.90
2014,08,27,06,10,14.90
2014,08,27,06,11,14.90
2014,08,27,06,12,14.90
2014,08,27,06,13,14.90
2014,08,27,06,14,14.90
2014,08,27,06,15,14.90
2014,08,27,06,16,14.90
2014,08,27,06,17,14.90
2014,08,27,06,18,14.90
2014,08,27,06,19,14.90
2014,08,27,06,20,14.90
2014,08,27,06,21,14.90
2014,08,27,06,22,14.90
2014,08,27,06,23,14.90
2014,08,27,06,24,15.00
2014,08,27,06,25,15.00
2014,08,27,06,26,15.00
2014,08,27,06,27,15.00
2014,08,27,06,28,14.90
2014,08,27,06,29,14.90
2014,08,27,06,30,15.00
2014,08,27,06,31,15.00
2014,08,27,06,32,15.00
2014,08,27,06,33,15.00
2014,08,27,06,34,14.90
2014,08,27,06,35,14.90
2014,08,27,06,36,14.90
2014,08,27,06,37,14.90
2014,08,27,06,38,14.90
2014,08,27,06,39,14.90
2014,08,27,06,40,14.90
2014,08,27,06,41,14.90
2014,08,27,06,42,14.90
2014,08,27,06,43,14.90
2014,08,27,06,44,14.90
2014,08,27,06,45,14.90
2014,08,27,06,46,14.90
2014,08,27,06,47,14.90
2014,08,27,06,48,14.90
2014,08,27,06,49,14.90
2014,08,27,06,50,14.90
2014,08,27,06,51,14.90
2014,08,27,06,52,14.90
2014,08,27,06,53,14.90
2014,08,27,06,54,14.90
2014,08,27,06,55,14.90
2014,08,27,06,56,14.90
2014,08,27,06,57,14.90
2014,08,27,06,58,15.00
2014,08,27,06,59,15.00
2014,08,27,07,00,15.00
2014,08,27,07,01,15.00
2014,08,27,07,02,15.00
2014,08,27,07,03,15.00
2014,08,27,07,04,15.00
2014,08,27,07,05,15.00
2014,08,27,07,06,15.00
2014,08,27,07,07,15.00
2014,08,27,07,08,15.00
2014,08,27,07,09,15.10
2014,08,27,07,10,15.10
2014,08,27,07,11,15.20
2014,08,27,07,12,15.20
2014,08,27,07,13,15.20
2014,08,27,07,14,15.30
2014,08,27,07,15,15.30
2014,08,27,07,16,15.30
2014,08,27,07,17,15.40
2014,08,27,07,18,15.40
2014,08,27,07,19,15.40
2014,08,27,07,20,15.40
2014,08,27,07,21,15.50
2014,08,27,07,22,15.60
2014,08,27,07,23,15.60
2014,08,27,07,24,15.60
2014,08,27,07,25,15.70
2014,08,27,07,26,15.80
2014,08,27,07,27,15.80
2014,08,27,07,28,15.90
2014,08,27,07,29,15.90
2014,08,27,07,30,16.00
2014,08,27,07,31,16.10
2014,08,27,07,32,16.10
2014,08,27,07,33,16.20
2014,08,27,07,34,16.20
2014,08,27,07,35,16.30
2014,08,27,07,36,16.30
2014,08,27,07,37,16.40
2014,08,27,07,38,16.50
2014,08,27,07,39,16.60
2014,08,27,07,40,16.60
2014,08,27,07,41,16.70
2014,08,27,07,42,16.80
2014,08,27,07,43,16.90
2014,08,27,07,44,16.90
2014,08,27,07,45,17.00
2014,08,27,07,46,17.10
2014,08,27,07,47,17.20
2014,08,27,07,48,17.20
2014,08,27,07,49,17.30
2014,08,27,07,50,17.40
2014,08,27,07,51,17.50
2014,08,27,07,52,17.60
2014,08,27,07,53,17.70
2014,08,27,07,54,17.80
2014,08,27,07,55,18.00
2014,08,27,07,56,18.20
2014,08,27,07,57,18.40
2014,08,27,07,58,18.50
2014,08,27,07,59,18.70
2014,08,27,08,00,18.80
2014,08,27,08,01,18.90
2014,08,27,08,02,19.00
2014,08,27,08,03,19.10
2014,08,27,08,04,19.20
2014,08,27,08,05,19.30
2014,08,27,08,06,19.40
2014,08,27,08,07,19.50
2014,08,27,08,08,19.50
2014,08,27,08,09,19.60
2014,08,27,08,10,19.70
2014,08,27,08,11,19.70
2014,08,27,08,12,19.80
2014,08,27,08,13,19.90
2014,08,27,08,14,20.00
2014,08,27,08,15,20.00
2014,08,27,08,16,20.10
2014,08,27,08,17,20.20
2014,08,27,08,18,20.20
2014,08,27,08,19,20.20
2014,08,27,08,20,20.20
2014,08,27,08,21,20.10
2014,08,27,08,22,20.10
2014,08,27,08,23,20.00
2014,08,27,08,24,19.90
2014,08,27,08,25,19.70
2014,08,27,08,26,19.70
2014,08,27,08,27,19.50
2014,08,27,08,28,19.30
2014,08,27,08,29,19.10
2014,08,27,08,30,18.90
2014,08,27,08,31,18.80
2014,08,27,08,32,18.70
2014,08,27,08,33,18.70
2014,08,27,08,34,18.70
2014,08,27,08,35,18.70
2014,08,27,08,36,18.60
2014,08,27,08,37,18.60
2014,08,27,08,38,18.60
2014,08,27,08,39,18.60
2014,08,27,08,40,18.60
2014,08,27,08,41,18.70
2014,08,27,08,42,18.70
2014,08,27,08,43,18.80
2014,08,27,08,44,18.90
2014,08,27,08,45,19.00
2014,08,27,08,46,19.10
2014,08,27,08,47,19.20
2014,08,27,08,48,19.20
2014,08,27,08,49,19.30
2014,08,27,08,50,19.30
2014,08,27,08,51,19.40
2014,08,27,08,52,19.50
2014,08,27,08,53,19.50
2014,08,27,08,54,19.60
2014,08,27,08,55,19.60
2014,08,27,08,56,19.60
2014,08,27,08,57,19.60
2014,08,27,08,58,19.60
2014,08,27,08,59,19.70
2014,08,27,09,00,19.70
2014,08,27,09,01,19.80
2014,08,27,09,02,19.80
2014,08,27,09,03,19.90
2014,08,27,09,04,19.90
2014,08,27,09,05,19.90
2014,08,27,09,06,19.80
2014,08,27,09,07,19.70
2014,08,27,09,08,19.70
2014,08,27,09,09,19.70
2014,08,27,09,10,19.70
2014,08,27,09,11,19.60
2014,08,27,09,12,19.60
2014,08,27,09,13,19.70
2014,08,27,09,14,19.70
2014,08,27,09,15,19.80
2014,08,27,09,16,19.90
2014,08,27,09,17,19.90
2014,08,27,09,18,20.00
2014,08,27,09,19,20.10
2014,08,27,09,20,20.20
2014,08,27,09,21,20.30
2014,08,27,09,22,20.40
2014,08,27,09,23,20.50
2014,08,27,09,24,20.60
2014,08,27,09,25,20.70
2014,08,27,09,26,20.70
2014,08,27,09,27,20.70
2014,08,27,09,28,20.60
2014,08,27,09,29,20.40
2014,08,27,09,30,20.40
2014,08,27,09,31,20.30
2014,08,27,09,32,20.40
2014,08,27,09,33,20.40
2014,08,27,09,34,20.50
2014,08,27,09,35,20.50
2014,08,27,09,36,20.60
2014,08,27,09,37,20.70
2014,08,27,09,38,20.60
2014,08,27,09,39,20.60
2014,08,27,09,40,20.60
2014,08,27,09,41,20.50
2014,08,27,09,42,20.50
2014,08,27,09,43,20.50
2014,08,27,09,44,20.50
2014,08,27,09,45,20.60
2014,08,27,09,46,20.60
2014,08,27,09,47,20.70
2014,08,27,09,48,20.60
2014,08,27,09,49,20.50
2014,08,27,09,50,20.40
2014,08,27,09,51,20.30
2014,08,27,09,52,20.10
2014,08,27,09,53,20.00
2014,08,27,09,54,20.00
2014,08,27,09,55,19.90
2014,08,27,09,56,19.90
2014,08,27,09,57,19.80
2014,08,27,09,58,19.80
2014,08,27,09,59,19.80
2014,08,27,10,00,19.70
2014,08,27,10,01,19.70
2014,08,27,10,02,19.60
2014,08,27,10,03,19.60
2014,08,27,10,04,19.50
2014,08,27,10,05,19.50
2014,08,27,10,06,19.60
2014,08,27,10,07,19.70
2014,08,27,10,08,19.70
2014,08,27,10,09,19.80
2014,08,27,10,10,20.00
2014,08,27,10,11,20.00
2014,08,27,10,12,20.00
2014,08,27,10,13,20.00
2014,08,27,10,14,20.00
2014,08,27,10,15,20.10
2014,08,27,10,16,20.10
2014,08,27,10,17,20.10
2014,08,27,10,18,20.20
2014,08,27,10,19,20.30
2014,08,27,10,20,20.30
2014,08,27,10,21,20.30
2014,08,27,10,22,20.50
2014,08,27,10,23,20.60
2014,08,27,10,24,20.70
2014,08,27,10,25,20.60
2014,08,27,10,26,20.60
2014,08,27,10,27,20.60
2014,08,27,10,28,20.60
2014,08,27,10,29,20.70
2014,08,27,10,30,20.70
2014,08,27,10,31,20.90
2014,08,27,10,32,21.00
2014,08,27,10,33,21.20
2014,08,27,10,34,21.30
2014,08,27,10,35,21.20
2014,08,27,10,36,21.20
2014,08,27,10,37,21.10
2014,08,27,10,38,21.00
2014,08,27,10,39,20.90
2014,08,27,10,40,20.90
2014,08,27,10,41,20.70
2014,08,27,10,42,20.60
2014,08,27,10,43,20.60
2014,08,27,10,44,20.60
2014,08,27,10,45,20.60
2014,08,27,10,46,20.70
2014,08,27,10,47,20.80
2014,08,27,10,48,20.90
2014,08,27,10,49,21.00
2014,08,27,10,50,21.20
2014,08,27,10,51,21.20
2014,08,27,10,52,21.30
2014,08,27,10,53,21.50
2014,08,27,10,54,21.50
2014,08,27,10,55,21.60
2014,08,27,10,56,21.70
2014,08,27,10,57,21.80
2014,08,27,10,58,21.90
2014,08,27,10,59,21.90
2014,08,27,11,00,22.00
2014,08,27,11,01,22.10
2014,08,27,11,02,22.10
2014,08,27,11,03,22.00
2014,08,27,11,04,21.90
2014,08,27,11,05,22.00
2014,08,27,11,06,22.00
2014,08,27,11,07,22.10
2014,08,27,11,08,22.20
2014,08,27,11,09,22.20
2014,08,27,11,10,22.30
2014,08,27,11,11,22.20
2014,08,27,11,12,22.20
2014,08,27,11,13,22.10
2014,08,27,11,14,22.20
2014,08,27,11,15,22.20
2014,08,27,11,16,22.10
2014,08,27,11,17,22.10
2014,08,27,11,18,22.10
2014,08,27,11,19,22.10
2014,08,27,11,20,22.10
2014,08,27,11,21,22.20
2014,08,27,11,22,22.30
2014,08,27,11,23,22.40
2014,08,27,11,24,22.50
2014,08,27,11,25,22.70
2014,08,27,11,26,22.70
2014,08,27,11,27,22.80
2014,08,27,11,28,22.80
2014,08,27,11,29,22.80
2014,08,27,11,30,22.70
2014,08,27,11,31,22.70
2014,08,27,11,32,22.70
2014,08,27,11,33,22.70
2014,08,27,11,34,22.80
2014,08,27,11,35,22.90
2014,08,27,11,36,22.90
2014,08,27,11,37,22.90
2014,08,27,11,38,23.00
2014,08,27,11,39,22.90
2014,08,27,11,40,22.80
2014,08,27,11,41,22.70
2014,08,27,11,42,22.60
2014,08,27,11,43,22.40
2014,08,27,11,44,22.20
2014,08,27,11,45,22.00
2014,08,27,11,46,21.90
2014,08,27,11,47,21.80
2014,08,27,11,48,21.60
2014,08,27,11,49,21.50
2014,08,27,11,50,21.40
2014,08,27,11,51,21.40
2014,08,27,11,52,21.50
2014,08,27,11,53,21.60
2014,08,27,11,54,21.70
2014,08,27,11,55,21.80
2014,08,27,11,56,21.90
2014,08,27,11,57,22.00
2014,08,27,11,58,22.10
2014,08,27,11,59,22.20
2014,08,27,12,00,22.20
2014,08,27,12,01,22.20
2014,08,27,12,02,22.20
2014,08,27,12,03,22.20
2014,08,27,12,04,22.20
2014,08,27,12,05,22.20
2014,08,27,12,06,22.10
2014,08,27,12,07,22.10
2014,08,27,12,08,22.10
2014,08,27,12,09,21.90
2014,08,27,12,10,21.90
2014,08,27,12,11,21.90
2014,08,27,12,12,22.00
2014,08,27,12,13,22.10
2014,08,27,12,14,22.20
2014,08,27,12,15,22.30
2014,08,27,12,16,22.30
2014,08,27,12,17,22.30
2014,08,27,12,18,22.20
2014,08,27,12,19,22.20
2014,08,27,12,20,22.20
2014,08,27,12,21,22.30
2014,08,27,12,22,22.40
2014,08,27,12,23,22.50
2014,08,27,12,24,22.70
2014,08,27,12,25,22.70
2014,08,27,12,26,22.70
2014,08,27,12,27,22.50
2014,08,27,12,28,22.40
2014,08,27,12,29,22.20
2014,08,27,12,30,22.10
2014,08,27,12,31,21.90
2014,08,27,12,32,21.90
2014,08,27,12,33,21.90
2014,08,27,12,34,22.00
2014,08,27,12,35,22.10
2014,08,27,12,36,22.20
2014,08,27,12,37,22.20
2014,08,27,12,38,22.20
2014,08,27,12,39,22.20
2014,08,27,12,40,22.20
2014,08,27,12,41,22.10
2014,08,27,12,42,22.20
2014,08,27,12,43,22.20
2014,08,27,12,44,22.40
2014,08,27,12,45,22.30
2014,08,27,12,46,22.30
2014,08,27,12,47,22.30
2014,08,27,12,48,22.20
2014,08,27,12,49,22.10
2014,08,27,12,50,22.00
2014,08,27,12,51,21.90
2014,08,27,12,52,22.00
2014,08,27,12,53,22.20
2014,08,27,12,54,22.30
2014,08,27,12,55,22.40
2014,08,27,12,56,22.50
2014,08,27,12,57,22.60
2014,08,27,12,58,22.70
2014,08,27,12,59,22.60
2014,08,27,13,00,22.50
2014,08,27,13,01,22.60
2014,08,27,13,02,22.60
2014,08,27,13,03,22.70
2014,08,27,13,04,22.70
2014,08,27,13,05,22.60
2014,08,27,13,06,22.60
2014,08,27,13,07,22.60
2014,08,27,13,08,22.60
2014,08,27,13,09,22.50
2014,08,27,13,10,22.60
2014,08,27,13,11,22.70
2014,08,27,13,12,22.80
2014,08,27,13,13,22.90
2014,08,27,13,14,22.90
2014,08,27,13,15,22.90
2014,08,27,13,16,22.90
2014,08,27,13,17,22.80
2014,08,27,13,18,22.70
2014,08,27,13,19,22.60
2014,08,27,13,20,22.60
2014,08,27,13,21,22.50
2014,08,27,13,22,22.50
2014,08,27,13,23,22.50
2014,08,27,13,24,22.50
2014,08,27,13,25,22.60
2014,08,27,13,26,22.60
2014,08,27,13,27,22.50
2014,08,27,13,28,22.60
2014,08,27,13,29,22.70
2014,08,27,13,30,22.70
2014,08,27,13,31,22.70
2014,08,27,13,32,22.80
2014,08,27,13,33,22.80
2014,08,27,13,34,22.80
2014,08,27,13,35,22.90
2014,08,27,13,36,23.00
2014,08,27,13,37,23.10
2014,08,27,13,38,23.20
2014,08,27,13,39,23.30
2014,08,27,13,40,23.40
2014,08,27,13,41,23.30
2014,08,27,13,42,23.10
2014,08,27,13,43,23.10
2014,08,27,13,44,23.10
2014,08,27,13,45,23.00
2014,08,27,13,46,23.00
2014,08,27,13,47,23.10
2014,08,27,13,48,23.20
2014,08,27,13,49,23.30
2014,08,27,13,50,23.40
2014,08,27,13,51,23.50
2014,08,27,13,52,23.50
2014,08,27,13,53,23.50
2014,08,27,13,54,23.60
2014,08,27,13,55,23.60
2014,08,27,13,56,23.50
2014,08,27,13,57,23.40
2014,08,27,13,58,23.20
2014,08,27,13,59,23.10
2014,08,27,14,00,23.10
2014,08,27,14,01,23.10
2014,08,27,14,02,23.20
2014,08,27,14,03,23.30
2014,08,27,14,04,23.30
2014,08,27,14,05,23.20
2014,08,27,14,06,23.00
2014,08,27,14,07,22.80
2014,08,27,14,08,22.60
2014,08,27,14,09,22.60
2014,08,27,14,10,22.60
2014,08,27,14,11,22.50
2014,08,27,14,12,22.50
2014,08,27,14,13,22.40
2014,08,27,14,14,22.40
2014,08,27,14,15,22.30
2014,08,27,14,16,22.20
2014,08,27,14,17,22.10
2014,08,27,14,18,22.20
2014,08,27,14,19,22.30
2014,08,27,14,20,22.40
2014,08,27,14,21,22.50
2014,08,27,14,22,22.50
2014,08,27,14,23,22.50
2014,08,27,14,24,22.50
2014,08,27,14,25,22.60
2014,08,27,14,26,22.80
2014,08,27,14,27,22.90
2014,08,27,14,28,22.90
2014,08,27,14,29,22.90
2014,08,27,14,30,22.80
2014,08,27,14,31,22.70
2014,08,27,14,32,22.70
2014,08,27,14,33,22.70
2014,08,27,14,34,22.70
2014,08,27,14,35,22.70
2014,08,27,14,36,22.80
2014,08,27,14,37,23.10
2014,08,27,14,38,23.40
2014,08,27,14,39,23.70
2014,08,27,14,40,24.00
2014,08,27,14,41,24.40
2014,08,27,14,42,24.80
2014,08,27,14,43,25.20
2014,08,27,14,44,25.40
2014,08,27,14,45,25.60
2014,08,27,14,46,25.70
2014,08,27,14,47,25.70
2014,08,27,14,48,25.70
2014,08,27,14,49,25.70
2014,08,27,14,50,25.80
2014,08,27,14,51,25.70
2014,08,27,14,52,25.70
2014,08,27,14,53,25.70
2014,08,27,14,54,25.80
2014,08,27,14,55,25.80
2014,08,27,14,56,25.90
2014,08,27,14,57,26.00
2014,08,27,14,58,26.10
2014,08,27,14,59,26.20
2014,08,27,15,00,26.30
2014,08,27,15,01,26.30
2014,08,27,15,02,26.20
2014,08,27,15,03,26.30
2014,08,27,15,04,26.20
2014,08,27,15,05,26.20
2014,08,27,15,06,26.20
2014,08,27,15,07,26.20
2014,08,27,15,08,26.10
2014,08,27,15,09,25.90
2014,08,27,15,10,25.80
2014,08,27,15,11,25.70
2014,08,27,15,12,25.70
2014,08,27,15,13,25.70
2014,08,27,15,14,25.70
2014,08,27,15,15,25.70
2014,08,27,15,16,25.70
2014,08,27,15,17,25.80
2014,08,27,15,18,25.80
2014,08,27,15,19,25.80
2014,08,27,15,20,25.80
2014,08,27,15,21,25.70
2014,08,27,15,22,25.70
2014,08,27,15,23,25.70
2014,08,27,15,24,25.80
2014,08,27,15,25,25.90
2014,08,27,15,26,26.00
2014,08,27,15,27,26.10
2014,08,27,15,28,26.00
2014,08,27,15,29,25.70
2014,08,27,15,30,25.20
2014,08,27,15,31,24.60
2014,08,27,15,32,24.00
2014,08,27,15,33,23.60
2014,08,27,15,34,23.40
2014,08,27,15,35,23.30
2014,08,27,15,36,23.30
2014,08,27,15,37,23.30
2014,08,27,15,38,23.30
2014,08,27,15,39,23.20
2014,08,27,15,40,23.10
2014,08,27,15,41,23.00
2014,08,27,15,42,22.70
2014,08,27,15,43,22.40
2014,08,27,15,44,22.10
2014,08,27,15,45,21.70
2014,08,27,15,46,21.30
2014,08,27,15,47,21.00
2014,08,27,15,48,20.60
2014,08,27,15,49,20.10
2014,08,27,15,50,19.60
2014,08,27,15,51,19.20
2014,08,27,15,52,18.90
2014,08,27,15,53,18.60
2014,08,27,15,54,18.30
2014,08,27,15,55,18.20
2014,08,27,15,56,18.20
2014,08,27,15,57,18.10
2014,08,27,15,58,17.90
2014,08,27,15,59,17.80
2014,08,27,16,00,17.60
2014,08,27,16,01,17.50
2014,08,27,16,02,17.50
2014,08,27,16,03,17.40
2014,08,27,16,04,17.40
2014,08,27,16,05,17.30
2014,08,27,16,06,17.20
2014,08,27,16,07,17.20
2014,08,27,16,08,17.20
2014,08,27,16,09,17.10
2014,08,27,16,10,17.10
2014,08,27,16,11,17.10
2014,08,27,16,12,17.10
2014,08,27,16,13,17.10
2014,08,27,16,14,17.20
2014,08,27,16,15,17.20
2014,08,27,16,16,17.20
2014,08,27,16,17,17.20
2014,08,27,16,18,17.30
2014,08,27,16,19,17.30
2014,08,27,16,20,17.30
2014,08,27,16,21,17.30
2014,08,27,16,22,17.40
2014,08,27,16,23,17.40
2014,08,27,16,24,17.40
2014,08,27,16,25,17.30
2014,08,27,16,26,17.30
2014,08,27,16,27,17.30
2014,08,27,16,28,17.30
2014,08,27,16,29,17.50
2014,08,27,16,30,17.60
2014,08,27,16,31,17.80
2014,08,27,16,32,18.10
2014,08,27,16,33,18.30
2014,08,27,16,34,18.50
2014,08,27,16,35,18.60
2014,08,27,16,36,18.80
2014,08,27,16,37,18.90
2014,08,27,16,38,19.20
2014,08,27,16,39,19.40
2014,08,27,16,40,19.70
2014,08,27,16,41,19.80
2014,08,27,16,42,19.90
2014,08,27,16,43,20.00
2014,08,27,16,44,20.00
2014,08,27,16,45,20.10
2014,08,27,16,46,20.10
2014,08,27,16,47,20.10
2014,08,27,16,48,20.20
2014,08,27,16,49,20.30
2014,08,27,16,50,20.40
2014,08,27,16,51,20.50
2014,08,27,16,52,20.70
2014,08,27,16,53,20.80
2014,08,27,16,54,20.90
2014,08,27,16,55,21.20
2014,08,27,16,56,21.50
2014,08,27,16,57,21.90
2014,08,27,16,58,22.50
2014,08,27,16,59,23.00
2014,08,27,17,00,23.50
2014,08,27,17,01,24.10
2014,08,27,17,02,24.60
2014,08,27,17,03,24.90
2014,08,27,17,04,25.30
2014,08,27,17,05,25.70
2014,08,27,17,06,26.00
2014,08,27,17,07,26.20
2014,08,27,17,08,26.40
2014,08,27,17,09,26.50
2014,08,27,17,10,26.70
2014,08,27,17,11,26.80
2014,08,27,17,12,26.90
2014,08,27,17,13,27.10
2014,08,27,17,14,27.20
2014,08,27,17,15,27.30
2014,08,27,17,16,27.40
2014,08,27,17,17,27.40
2014,08,27,17,18,27.50
2014,08,27,17,19,27.60